Broken Bow, NE

7:44 PM CST on February 24, 2017 (GMT -0600)
Broken Bow Municipal

Weather History for KBBW - December, 2013

Change the Weather History Date:

Tuesday, December 24, 2013

  Actual Average Record
Temperature  
Mean Temperature 24 °F 25 °F  
Max Temperature 41 °F 37 °F 75 °F (1897)
Min Temperature 6 °F 13 °F -26 °F (1983)
Degree Days  
Heating Degree Days 41 40  
Month to date heating degree days 1043 941  
Cooling Degree Days 0 0  
Month to date cooling degree days 0 0  
Year to date cooling degree days 814 768  
Moisture  
Dew Point 20 °F    
Average Humidity 85    
Maximum Humidity 100    
Minimum Humidity 70    
Precipitation  
Precipitation 0.00 in 0.00 in 0.50 in (1939)
Sea Level Pressure  
Sea Level Pressure 30.17 in    
Wind  
Wind Speed 14 mph (WSW)    
Max Wind Speed 30 mph    
Max Gust Speed 30 mph    
Visibility 8 miles    
Events      
T = Trace of Precipitation, MM = Missing Value Source: NWS Daily Summary

Daily Weather History Graph

Daily Weather History Graph

Search for Another Location

Airport or City:

Trip Planner

Search our weather history database for the weather conditions in past years. The results will help you decide how hot, cold, wet, or windy it might be!

Date:

Astronomy

Dec. 24, 2013 Rise Set
Actual Time 8:02 AM CST 5:13 PM CST
Civil Twilight 7:31 AM CST 5:45 PM CST
Nautical Twilight 6:56 AM CST 6:20 PM CST
Astronomical Twilight 6:22 AM CST 6:53 PM CST
Moon No Moon Rise 11:53 AM CST (12/24)
Length of Visible Light 10h 13m
Length of Day
9h 10m
Waning Gibbous, 58% of the Moon is Illuminated
Dec 24
Waning Gibbous
Dec 25
Last Quarter
Jan 1
New
Jan 7
First Quarter
Jan 15
Full

Hourly Weather History & Observations

Time (CST) Temp. Windchill Dew Point Humidity Pressure Visibility Wind Dir Wind Speed Gust Speed Precip Events Conditions
12:53 AM 6.1 °F -6.8 °F 3.0 °F 87% 30.37 in 10.0 mi SSE 8.1 mph - N/A   Partly Cloudy
1:53 AM 6.1 °F -9.5 °F 3.9 °F 91% 30.34 in 10.0 mi SSE 11.5 mph - N/A   Partly Cloudy
2:13 AM 6.8 °F -8.6 °F 3.2 °F 85% 30.17 in 10.0 mi SSE 11.5 mph - N/A   Mostly Cloudy
2:53 AM 7.0 °F -8.3 °F 5.0 °F 92% 30.30 in 10.0 mi South 11.5 mph - N/A   Overcast
3:50 AM 12.2 °F -4.8 °F 10.4 °F 92% 30.12 in 8.0 mi South 17.3 mph 24.2 mph N/A   Overcast
3:53 AM 12.0 °F -5.1 °F 10.0 °F 92% 30.26 in 8.0 mi South 17.3 mph 24.2 mph N/A   Overcast
4:53 AM 14.0 °F -3.4 °F 12.0 °F 92% 30.22 in 6.0 mi South 19.6 mph - N/A   Overcast
5:53 AM 15.1 °F -0.1 °F 14.0 °F 95% 30.20 in 6.0 mi South 15.0 mph 24.2 mph N/A   Overcast
6:53 AM 16.0 °F -0.4 °F 15.1 °F 96% 30.18 in 6.0 mi South 18.4 mph 25.3 mph N/A   Overcast
7:53 AM 16.0 °F 1.1 °F 15.1 °F 96% 30.17 in 6.0 mi South 15.0 mph 25.3 mph N/A   Overcast
8:53 AM 17.1 °F 2.0 °F 15.1 °F 92% 30.16 in 4.0 mi South 16.1 mph 24.2 mph N/A   Overcast
9:48 AM 19.4 °F 4.1 °F 17.6 °F 93% 30.00 in 4.0 mi SSW 18.4 mph 27.6 mph N/A   Overcast
9:53 AM 19.0 °F 4.5 °F 17.1 °F 92% 30.14 in 4.0 mi SSW 16.1 mph 27.6 mph N/A   Overcast
10:18 AM 19.4 °F 3.6 °F 17.6 °F 93% 30.00 in 6.0 mi SSW 19.6 mph 27.6 mph N/A   Overcast
10:53 AM 21.9 °F 7.3 °F 19.0 °F 89% 30.11 in 7.0 mi SSW 18.4 mph 25.3 mph N/A   Overcast
11:53 AM 25.0 °F 12.2 °F 19.9 °F 81% 30.09 in 7.0 mi SSW 16.1 mph 28.8 mph N/A   Overcast
12:53 PM 30.9 °F 22.8 °F 24.1 °F 76% 30.06 in 9.0 mi WSW 9.2 mph - N/A   Clear
1:40 PM 35.6 °F 28.0 °F 26.6 °F 70% 29.96 in 10.0 mi WSW 10.4 mph - N/A   Mostly Cloudy
1:53 PM 36.0 °F 28.0 °F 26.1 °F 67% 30.07 in 10.0 mi West 11.5 mph - N/A   Overcast
2:53 PM 39.0 °F 31.4 °F 34.0 °F 82% 30.08 in 10.0 mi NNW 12.7 mph - N/A   Overcast
3:43 PM 39.2 °F 30.2 °F 33.8 °F 81% 30.01 in 10.0 mi NNW 17.3 mph 24.2 mph N/A   Overcast
3:53 PM 39.0 °F 29.6 °F 32.0 °F 76% 30.11 in 10.0 mi NNW 18.4 mph 24.2 mph N/A   Overcast
4:53 PM 37.0 °F 28.1 °F 32.0 °F 82% 30.14 in 10.0 mi NNW 15.0 mph 26.5 mph N/A   Overcast
5:53 PM 36.0 °F 24.4 °F 30.9 °F 82% 30.19 in 10.0 mi NNW 23.0 mph 28.8 mph N/A   Overcast
6:53 PM 34.0 °F 23.0 °F 28.9 °F 82% 30.22 in 10.0 mi NNW 18.4 mph 29.9 mph N/A   Mostly Cloudy
7:50 PM 32.0 °F 19.8 °F 26.6 °F 80% 30.15 in 10.0 mi NNW 20.7 mph 27.6 mph N/A   Scattered Clouds
7:53 PM 32.0 °F 19.8 °F 27.0 °F 82% 30.25 in 10.0 mi North 20.7 mph 27.6 mph N/A   Partly Cloudy
8:53 PM 30.0 °F 21.7 °F 26.1 °F 85% 30.30 in 10.0 mi NNW 9.2 mph - N/A   Scattered Clouds
9:43 PM 28.4 °F 24.6 °F 24.8 °F 86% 30.20 in 10.0 mi NW 3.5 mph - N/A   Mostly Cloudy
9:53 PM 28.9 °F 23.9 °F 26.1 °F 89% 30.30 in 10.0 mi NW 4.6 mph - N/A   Overcast
10:49 PM 28.4 °F 20.4 °F 24.8 °F 86% 30.21 in 10.0 mi NW 8.1 mph - N/A   Scattered Clouds
10:53 PM 27.0 °F 18.7 °F 24.1 °F 89% 30.30 in 10.0 mi NW 8.1 mph - N/A   Partly Cloudy
11:53 PM 24.1 °F - 21.9 °F 91% 30.32 in 10.0 mi Calm Calm - N/A   Clear